[[{"header":{"parameterUnit":"m.s-1","parameterCategory":1,"la1":30.2991,"la2":30.254,"lo1":-89.0895,"lo2":-89.0444,"dy":0.0017,"dx":0.0017,"nx":28,"ny":28,"refTime":"2023-10-10T21:00:00:Z","depth":0,"parameterNumber":2,"parameterNumberName":"U-component_of_WINDS"},"data":[0,0,0,0,0,0,0,0,0,0,0,0,0,0,0,0,0,0,0,0,0,0,0,0,0,0,0,0,0,0,0,0,0,0,0,0,0,0,0,0,0,0,0,0,0,0,0,0,0,0,0,0,0,0,0,0,0,0,-4.4576,-4.4576,0,-4.461,-4.461,-4.4611,-4.4508,-4.4505,-4.4502,-4.4499,-4.4536,-4.454,-4.4544,0,0,0,0,0,0,0,0,0,0,0,0,0,-4.4424,-4.4427,-4.4576,-4.4576,-4.4577,-4.461,-4.461,-4.4611,-4.4509,-4.4505,-4.4501,-4.4498,-4.4535,-4.454,-4.4544,0,0,0,0,0,0,0,0,0,0,0,0,0,-4.4477,-4.4428,-4.4576,-4.453,-4.4526,-4.461,-4.461,-4.4611,-4.451,-4.4505,-4.45,-4.4496,-4.4533,-4.4539,-4.4545,-4.4675,0,0,-4.4563,-4.4565,0,0,0,0,0,0,0,0,-4.4474,-4.4483,-4.4536,-4.4533,-4.4529,-4.455,-4.457,-4.4633,-4.4511,-4.4516,-4.4499,-4.4494,-4.4545,-4.4549,-4.4566,-4.4677,-4.4678,-4.4563,-4.4567,-4.4569,-4.4571,0,0,0,0,0,0,0,-4.4471,-4.4481,-4.4589,-4.4537,-4.4533,-4.4508,-4.451,-4.4582,-4.4556,-4.4515,-4.4508,-4.4513,-4.4542,-4.4561,-4.4566,-4.4679,-4.4563,-4.4568,-4.4572,-4.4574,-4.4899,-4.4904,0,0,0,0,0,0,-4.4473,-4.4478,-4.4588,-4.459,-4.4489,-4.4515,-4.4517,-4.4548,-4.4555,-4.4552,-4.4517,-4.4508,-4.4553,-4.456,-4.4567,-4.4722,-4.4569,-4.4575,-4.4578,-4.4894,-4.4901,-4.4906,0,0,0,0,0,0,-4.447,-4.4483,-4.4587,-4.4532,-4.4544,-4.4522,-4.4558,-4.4551,-4.457,-4.4557,-4.4552,-4.4541,-4.455,-4.4559,-4.4649,-4.4721,-4.4577,-4.4583,-4.4888,-4.4896,-4.4903,-4.5031,0,0,0,0,0,0,-4.4466,-4.4483,-4.4532,-4.4534,-4.4547,-4.4668,-4.4562,-4.4555,-4.458,-4.4569,-4.4578,-4.4575,-4.4547,-4.4641,-4.4655,-4.4727,-4.4587,-4.4882,-4.4892,-4.4901,-4.502,-4.5042,-4.5061,0,0,0,0,0,-4.4461,-4.4567,-4.4535,-4.4549,-4.4608,-4.4673,-4.468,-4.4645,-4.4586,-4.4636,-4.4627,-4.4575,-4.4711,-4.4651,-4.4666,-4.4741,-4.4877,-4.4889,-4.49,-4.5011,-4.5038,-4.506,0,0,0,0,0,0,-4.4574,-4.4566,-4.4531,-4.4641,-4.4658,-4.4655,-4.4717,-4.4674,-4.4709,-4.4697,-4.4652,-4.4655,-4.4754,-4.4755,-4.4689,-4.4868,-4.4784,-4.4799,-4.4863,-4.4888,-4.4908,-4.4907,-4.4592,0,0,0,0,0,-4.4612,-4.4665,-4.4655,-4.4753,-4.4763,-4.4739,-4.4765,-4.4737,-4.4753,-4.476,-4.4758,-4.4777,-4.4824,-4.4856,-4.4898,-4.5019,-4.502,-4.5078,-4.5098,-4.5115,-4.5129,-4.5195,-4.522,-4.4944,-4.4944,-4.4944,0,0,-4.4691,-4.4693,-4.4729,-4.4775,-4.4786,-4.4842,-4.4746,-4.4809,-4.4851,-4.477,-4.4856,-4.4855,-4.4872,-4.4979,-4.5026,-4.4984,-4.5205,-4.5129,-4.5143,-4.5148,-4.5209,-4.5235,-4.5259,-4.4952,-4.495,-4.4949,0,0,-4.4863,-4.4869,-4.4952,-4.4964,-4.4981,-4.4964,-4.4984,-4.4987,-4.4984,-4.5068,-4.5009,-4.5058,-4.5139,-4.5155,-4.5173,-4.5352,-4.5305,-4.5367,-4.5473,-4.5538,-4.556,-4.5579,-4.5644,-4.5668,-4.538,-4.5381,-4.5381,0,-4.496,-4.5042,-4.5,-4.5069,-4.5092,-4.502,-4.5104,-4.5118,-4.5147,-4.5165,-4.5117,-4.5218,-4.5225,-4.5335,-4.5378,-4.5395,-4.5417,-4.5367,-4.556,-4.5579,-4.5596,-4.5658,-4.5682,-4.5388,-4.5387,-4.5387,-4.5386,0,-4.516,-4.5219,-4.5284,-4.5314,-4.5344,-4.542,-4.539,-4.5425,-4.5394,-4.5382,-4.547,-4.5475,-4.5518,-4.5541,-4.5511,-4.5647,-4.5621,-4.5567,-4.5482,-4.563,-4.5688,-4.5711,-4.5399,-4.5396,-4.5394,-4.5392,0,0,-4.5408,-4.5414,-4.5439,-4.5452,-4.5464,-4.5509,-4.5581,-4.5623,-4.5655,-4.5677,-4.5738,-4.5808,-4.5758,-4.578,-4.575,-4.5806,-4.595,-4.5745,-4.5745,-4.5785,-4.6102,-4.6145,-4.6173,-4.5918,-4.5922,-4.5925,-4.6101,0,-4.558,-4.5705,-4.5669,-4.5795,-4.5849,-4.5781,-4.5844,-4.5859,-4.585,-4.5894,-4.5884,-4.5935,-4.5864,-4.5877,-4.5929,-4.5921,-4.6013,-4.5908,-4.5976,-4.5979,-4.5976,-4.6203,-4.6248,-4.6414,-4.6123,-4.6127,-4.613,0,-4.5798,-4.5829,-4.596,-4.5964,-4.5985,-4.6043,-4.6079,-4.6122,-4.6137,-4.6126,-4.615,-4.6109,-4.6181,-4.6094,-4.6194,-4.6123,-4.6148,-4.6148,-4.6154,-4.6161,-4.6065,-4.6218,-4.6466,-4.6492,-4.6165,-4.6162,-4.6159,0,-4.5968,-4.6042,-4.6131,-4.6144,-4.615,-4.6193,-4.6198,-4.6208,-4.6235,-4.6266,-4.6283,-4.6322,-4.6344,-4.6375,-4.6346,-4.6285,-4.6451,-4.6361,-4.6445,-4.6447,-4.6486,-4.6484,-4.6743,-4.6498,-4.6498,-4.6497,-4.6497,0,-4.6166,-4.6249,-4.6208,-4.6263,-4.6354,-4.6312,-4.6404,-4.64,-4.6411,-4.6464,-4.6406,-4.6458,-4.6415,-4.6462,-4.644,-4.6527,-4.6536,-4.6531,-4.6524,-4.6537,-4.6539,-4.6555,-4.6544,-4.6504,-4.6502,-4.6501,-4.65,0,-4.6373,-4.6348,-4.644,-4.6438,-4.644,-4.6508,-4.6506,-4.6557,-4.6543,-4.6611,-4.6624,-4.6603,-4.6656,-4.6629,-4.6684,-4.6668,-4.6782,-4.6758,-4.6777,-4.6772,-4.6858,-4.6851,-4.7139,-4.7175,-4.6905,-4.6908,-4.691,0,-4.6502,-4.6565,-4.657,-4.6601,-4.661,-4.6661,-4.6688,-4.6649,-4.668,-4.6702,-4.6751,-4.6798,-4.6835,-4.6923,-4.6912,-4.6954,-4.6933,-4.7031,-4.6939,-4.6951,-4.6937,-4.6935,-4.6942,-4.705,-4.7053,-4.7056,-4.7058,0,-4.6735,-4.6719,-4.6761,-4.6799,-4.6833,-4.6861,-4.6884,-4.6913,-4.6874,-4.6912,-4.6965,-4.6994,-4.7049,-4.7098,-4.7135,-4.7139,-4.7094,-4.7086,-4.7109,-4.7124,-4.7133,-4.7132,-4.683,-4.7081,-4.7079,-4.7077,-4.7076,-4.7075,-4.6909,-4.6962,-4.6974,-4.7022,-4.7035,-4.7058,-4.7106,-4.7097,-4.7141,-4.7184,-4.7157,-4.722,-4.7234,-4.7277,-4.7288,-4.7337,-4.7299,-4.733,-4.7339,-4.7348,-4.736,-4.7123,-4.7344,-4.7343,-4.7342,-4.7342,-4.7341,0,-4.7141,-4.7145,-4.7189,-4.7223,-4.7262,-4.7213,-4.7236,-4.7272,-4.7328,-4.7344,-4.7381,-4.7443,-4.7489,-4.7482,-4.7525,-4.7566,-4.7546,-4.7578,-4.7576,-4.7579,-4.7392,-4.7369,-4.7594,-4.7594,-4.7594,-4.7594,-4.7594,-4.7594,-4.7266,-4.7354,-4.734,-4.7433,-4.7436,-4.7498,-4.7515,-4.7536,-4.7549,-4.762,-4.7659,-4.7653,-4.766,-4.7703,-4.7744,-4.774,-4.776,-4.7801,-4.779,-4.7616,-4.7592,-4.7568,-4.7547,-4.7805,-4.7805,-4.7973,-4.7975,-4.7976]},{"header":{"parameterUnit":"m.s-1","parameterCategory":1,"la1":30.2991,"la2":30.254,"lo1":-89.0895,"lo2":-89.0444,"dy":0.0017,"dx":0.0017,"nx":28,"ny":28,"refTime":"2023-10-10T21:00:00:Z","depth":0,"parameterNumber":3,"parameterNumberName":"V-component_of_WINDS"},"data":[0,0,0,0,0,0,0,0,0,0,0,0,0,0,0,0,0,0,0,0,0,0,0,0,0,0,0,0,0,0,0,0,0,0,0,0,0,0,0,0,0,0,0,0,0,0,0,0,0,0,0,0,0,0,0,0,0,0,-11.1219,-11.1218,0,-11.1153,-11.1152,-11.1151,-11.0894,-11.0888,-11.0882,-11.0877,-11.0814,-11.0818,-11.0822,0,0,0,0,0,0,0,0,0,0,0,0,0,-11.1124,-11.1128,-11.1219,-11.1218,-11.1217,-11.1153,-11.1152,-11.1151,-11.0895,-11.0888,-11.0881,-11.0874,-11.0813,-11.0818,-11.0822,0,0,0,0,0,0,0,0,0,0,0,0,0,-11.1123,-11.1129,-11.1219,-11.1082,-11.1069,-11.1153,-11.1152,-11.1151,-11.0897,-11.0888,-11.0879,-11.0871,-11.0811,-11.0817,-11.0823,-11.1036,0,0,-11.084,-11.0843,0,0,0,0,0,0,0,0,-11.1124,-11.1127,-11.1103,-11.1091,-11.1077,-11.1022,-11.1095,-11.1113,-11.0899,-11.0962,-11.0877,-11.0866,-11.0891,-11.089,-11.0897,-11.1033,-11.1031,-11.0841,-11.0845,-11.0847,-11.0849,0,0,0,0,0,0,0,-11.1124,-11.1128,-11.1193,-11.1103,-11.1087,-11.1024,-11.1014,-11.1098,-11.0978,-11.0956,-11.0937,-11.0933,-11.0882,-11.0892,-11.0894,-11.103,-11.0841,-11.0846,-11.085,-11.0852,-11.1335,-11.1344,0,0,0,0,0,0,-11.1143,-11.113,-11.1195,-11.1191,-11.1079,-11.1033,-11.1021,-11.1049,-11.0976,-11.0956,-11.094,-11.0921,-11.0887,-11.0887,-11.0891,-11.1133,-11.0847,-11.0852,-11.0856,-11.1325,-11.1337,-11.1347,0,0,0,0,0,0,-11.1142,-11.1151,-11.1197,-11.1155,-11.1156,-11.1044,-11.1077,-11.1052,-11.1062,-11.0964,-11.0941,-11.0972,-11.088,-11.0882,-11.1001,-11.1128,-11.0855,-11.086,-11.1314,-11.1329,-11.1342,-11.1624,0,0,0,0,0,0,-11.114,-11.1153,-11.1233,-11.1159,-11.116,-11.131,-11.1085,-11.1058,-11.1072,-11.1046,-11.0988,-11.097,-11.0873,-11.0994,-11.1007,-11.1131,-11.0865,-11.1302,-11.1321,-11.1337,-11.1603,-11.1646,-11.1682,0,0,0,0,0,-11.1138,-11.1316,-11.1238,-11.1247,-11.1257,-11.1317,-11.1318,-11.1201,-11.1083,-11.1162,-11.1099,-11.0972,-11.1112,-11.1008,-11.102,-11.1149,-11.1294,-11.1316,-11.1336,-11.1585,-11.1637,-11.1681,0,0,0,0,0,0,-11.1411,-11.1304,-11.1216,-11.1376,-11.1357,-11.1274,-11.1371,-11.1261,-11.1277,-11.1252,-11.1108,-11.1097,-11.1237,-11.1204,-11.109,-11.135,-11.1181,-11.1206,-11.1366,-11.1415,-11.1454,-11.146,-11.087,0,0,0,0,0,-11.1489,-11.1546,-11.145,-11.16,-11.1595,-11.1485,-11.1507,-11.1418,-11.1394,-11.1386,-11.133,-11.1313,-11.1352,-11.1382,-11.1413,-11.1596,-11.1579,-11.169,-11.173,-11.1763,-11.1787,-11.1879,-11.1927,-11.1416,-11.1416,-11.1415,0,0,-11.1653,-11.1601,-11.1646,-11.1654,-11.1629,-11.1691,-11.148,-11.1556,-11.1601,-11.1397,-11.1505,-11.1465,-11.1435,-11.1586,-11.165,-11.1563,-11.1923,-11.179,-11.1817,-11.1822,-11.1906,-11.1954,-11.1997,-11.143,-11.1428,-11.1425,0,0,-11.1981,-11.1949,-11.2069,-11.2047,-11.2011,-11.1935,-11.1965,-11.1897,-11.1861,-11.1966,-11.1814,-11.1866,-11.1938,-11.1922,-11.1924,-11.2243,-11.2126,-11.2257,-11.2467,-11.2559,-11.2599,-11.2634,-11.2747,-11.2789,-11.2281,-11.2281,-11.2282,0,-11.219,-11.2276,-11.2145,-11.2229,-11.2236,-11.2052,-11.2172,-11.2158,-11.2135,-11.2145,-11.2047,-11.2131,-11.2098,-11.2242,-11.232,-11.2328,-11.2356,-11.2264,-11.2603,-11.2637,-11.2668,-11.2774,-11.2817,-11.2297,-11.2296,-11.2294,-11.2292,0,-11.2533,-11.2595,-11.2697,-11.2676,-11.2694,-11.2797,-11.2681,-11.2715,-11.2624,-11.256,-11.2669,-11.2622,-11.264,-11.2667,-11.2581,-11.2799,-11.2746,-11.2629,-11.2456,-11.2735,-11.2832,-11.2872,-11.2321,-11.2315,-11.231,-11.2306,0,0,-11.3036,-11.2937,-11.2977,-11.2963,-11.2908,-11.2954,-11.3047,-11.3061,-11.3093,-11.3083,-11.3158,-11.3221,-11.311,-11.3113,-11.3022,-11.3103,-11.3357,-11.2974,-11.2971,-11.3047,-11.3594,-11.3683,-11.3732,-11.3279,-11.3286,-11.3292,-11.3596,0,-11.3348,-11.35,-11.3382,-11.3556,-11.361,-11.3434,-11.3515,-11.349,-11.3432,-11.347,-11.3406,-11.3452,-11.3304,-11.3303,-11.3375,-11.3312,-11.3465,-11.3288,-11.3348,-11.3351,-11.3361,-11.3783,-11.3878,-11.4167,-11.3633,-11.364,-11.3644,0,-11.3734,-11.3737,-11.3915,-11.3844,-11.3863,-11.3938,-11.394,-11.3979,-11.3947,-11.3898,-11.3899,-11.3786,-11.3873,-11.3703,-11.3821,-11.3703,-11.372,-11.3692,-11.37,-11.3702,-11.3515,-11.3796,-11.4257,-11.4301,-11.3703,-11.3698,-11.3694,0,-11.4081,-11.413,-11.4242,-11.4236,-11.4157,-11.4214,-11.4184,-11.4142,-11.4157,-11.416,-11.4168,-11.4182,-11.419,-11.4204,-11.4097,-11.3984,-11.4228,-11.405,-11.4191,-11.4194,-11.4251,-11.4249,-11.4722,-11.4263,-11.4262,-11.4262,-11.4261,0,-11.4443,-11.4559,-11.4396,-11.4466,-11.4589,-11.4453,-11.458,-11.4531,-11.4495,-11.4552,-11.4401,-11.4458,-11.4314,-11.4356,-11.4274,-11.4383,-11.4388,-11.4352,-11.4329,-11.4366,-11.437,-11.4376,-11.4353,-11.4273,-11.427,-11.4268,-11.4266,0,-11.4853,-11.4749,-11.4859,-11.4773,-11.4754,-11.4849,-11.4776,-11.4837,-11.4766,-11.484,-11.485,-11.4741,-11.4782,-11.4677,-11.4704,-11.4648,-11.4805,-11.4749,-11.4816,-11.4799,-11.4945,-11.4933,-11.5438,-11.5497,-11.5002,-11.5006,-11.501,0,-11.5091,-11.5175,-11.5097,-11.5122,-11.51,-11.5144,-11.5157,-11.5025,-11.5046,-11.5013,-11.5078,-11.5106,-11.5122,-11.5197,-11.5121,-11.514,-11.5084,-11.5259,-11.5086,-11.512,-11.5086,-11.5083,-11.509,-11.5296,-11.5302,-11.5307,-11.5311,0,-11.5525,-11.5467,-11.5491,-11.5497,-11.5516,-11.5515,-11.5503,-11.5534,-11.5392,-11.5423,-11.5462,-11.5474,-11.5498,-11.5529,-11.553,-11.55,-11.5384,-11.5366,-11.5399,-11.5438,-11.5473,-11.5456,-11.4913,-11.5355,-11.5351,-11.5348,-11.5345,-11.5343,-11.5855,-11.592,-11.5874,-11.5905,-11.5881,-11.5873,-11.5925,-11.5859,-11.5888,-11.5896,-11.5817,-11.5873,-11.5836,-11.5825,-11.5807,-11.5849,-11.5769,-11.5818,-11.5831,-11.5845,-11.5869,-11.5466,-11.5849,-11.5848,-11.5846,-11.5845,-11.5844,0,-11.628,-11.624,-11.627,-11.6256,-11.628,-11.6163,-11.6144,-11.6172,-11.6222,-11.6196,-11.6213,-11.6257,-11.6285,-11.621,-11.6226,-11.6275,-11.6222,-11.6284,-11.6279,-11.6274,-11.594,-11.5909,-11.6326,-11.6326,-11.6326,-11.6326,-11.6326,-11.6326,-11.6504,-11.6607,-11.6545,-11.6635,-11.6594,-11.6645,-11.6643,-11.6635,-11.6613,-11.6668,-11.6688,-11.6638,-11.6592,-11.6604,-11.6624,-11.6601,-11.6615,-11.6696,-11.6655,-11.6345,-11.6298,-11.6253,-11.6223,-11.67,-11.67,-11.6985,-11.6988,-11.699]}]]